START_TIME,STEP,MOV.,M29,t_acc.,H22,t_acc.,H26,t_acc.,H30,t_acc.
1979-07-14 00:00:32.200 ,0,0,0.,24.0,0.,24.0,0.,24.0,0.,24.0
1979-07-14 00:00:56.200 ,1,1,0.,24.0,0.,24.0,0.,24.0,0.,24.0
1979-07-14 00:01:20.200 ,1,0,0.,24.0,0.,24.0,0.,24.0,0.,24.0
1979-07-14 00:01:44.200 ,2,1,0.,24.0,0.,24.0,0.,24.0,0.,24.0
1979-07-14 00:02:08.200 ,2,0,0.,24.0,0.,24.0,0.,24.0,0.,24.0
1979-07-14 00:02:32.200 ,3,1,0.,24.0,0.,24.0,0.,24.0,0.,24.0
1979-07-14 00:02:56.200 ,3,0,0.,24.0,0.,24.0,0.,24.0,0.,24.0
1979-07-14 00:03:20.200 ,4,1,0.,24.0,0.,24.0,0.,24.0,0.,24.0
1979-07-14 00:03:44.200 ,4,0,0.,24.0,0.,24.0,0.,24.0,0.,24.0
1979-07-14 00:04:08.200 ,5,1,0.,24.0,0.,24.0,0.,24.0,0.,24.0
1979-07-14 00:04:32.200 ,5,0,0.,24.0,0.,24.0,0.,24.0,0.,24.0
1979-07-14 00:04:56.200 ,6,1,0.,24.0,0.,24.0,0.,24.0,0.,24.0
1979-07-14 00:05:20.200 ,6,0,0.,24.0,0.,24.0,0.,24.0,0.,24.0
1979-07-14 00:05:44.200 ,7,1,0.,24.0,0.,24.0,0.,24.0,0.,24.0
1979-07-14 00:06:08.200 ,7,0,0.,24.0,0.,24.0,0.,24.0,0.,24.0
1979-07-14 00:06:32.200 ,7,1,0.,24.0,0.,24.0,0.,24.0,0.,24.0
1979-07-14 00:06:56.200 ,7,0,0.,24.0,0.,24.0,0.,24.0,0.,24.0
1979-07-14 00:07:20.200 ,6,1,0.,24.0,0.,24.0,0.,24.0,0.,24.0
1979-07-14 00:07:44.200 ,6,0,0.,24.0,0.,24.0,0.,24.0,0.,24.0
1979-07-14 00:08:08.200 ,5,1,0.,24.0,0.,24.0,0.,24.0,0.,24.0
1979-07-14 00:08:32.200 ,5,0,0.,24.0,0.,24.0,0.,24.0,0.,24.0
1979-07-14 00:08:56.200 ,4,1,0.,24.0,0.,24.0,0.,24.0,0.,24.0
1979-07-14 00:09:20.200 ,4,0,0.,24.0,0.,24.0,0.,24.0,0.,24.0
1979-07-14 00:09:44.200 ,3,1,0.,24.0,0.,24.0,0.,24.0,0.,24.0
1979-07-14 00:10:08.200 ,3,0,0.,24.0,0.,24.0,0.,24.0,0.,24.0
1979-07-14 00:10:32.200 ,2,1,0.,24.0,0.,24.0,0.,24.0,0.,24.0
1979-07-14 00:10:56.200 ,2,0,0.,24.0,0.,24.0,0.,24.0,0.,24.0
1979-07-14 00:11:20.200 ,1,1,0.,24.0,0.,24.0,0.,24.0,0.,24.0
1979-07-14 00:11:44.200 ,1,0,0.,24.0,0.,24.0,0.,24.0,0.,24.0
1979-07-14 00:12:08.200 ,0,1,0.,24.0,0.,24.0,0.,24.0,0.,24.0
1979-07-14 00:12:32.200 ,0,0,0.,24.0,0.,24.0,0.,24.0,0.,24.0
1979-07-14 00:12:56.200 ,0,1,0.,24.0,0.,24.0,0.,24.0,0.,24.0
1979-07-14 00:13:20.200 ,0,0,0.,24.0,0.,24.0,0.,24.0,0.,24.0
1979-07-14 00:13:44.200 ,1,1,0.,24.0,0.,24.0,0.,24.0,0.,24.0
1979-07-14 00:14:08.200 ,1,0,0.,24.0,0.,24.0,0.,24.0,0.,24.0
1979-07-14 00:14:32.200 ,2,1,0.,24.0,0.,24.0,0.,24.0,0.,24.0
1979-07-14 00:14:56.200 ,2,0,0.,24.0,0.,24.0,0.,24.0,0.,24.0
1979-07-14 00:15:20.200 ,3,1,0.,24.0,0.,24.0,0.,24.0,0.,24.0
1979-07-14 00:15:44.200 ,3,0,0.,24.0,0.,24.0,0.,24.0,0.,24.0
1979-07-14 00:16:08.200 ,4,1,0.,24.0,0.,24.0,0.,24.0,0.,24.0
1979-07-14 00:16:32.200 ,4,0,0.,24.0,0.,24.0,0.,24.0,0.,24.0
1979-07-14 00:16:56.200 ,5,1,0.,24.0,0.,24.0,0.,24.0,0.,24.0
1979-07-14 00:17:20.200 ,5,0,0.,24.0,0.,24.0,0.,24.0,0.,24.0
1979-07-14 00:17:44.200 ,6,1,0.,24.0,0.,24.0,0.,24.0,0.,24.0
1979-07-14 00:18:08.200 ,6,0,0.,24.0,0.,24.0,0.,24.0,0.,24.0
1979-07-14 00:18:32.200 ,7,0,0.,24.0,0.,24.0,0.,24.0,0.,24.0
1979-07-14 00:18:56.200 ,7,0,0.,24.0,0.,24.0,0.,24.0,0.,24.0
1979-07-14 00:19:20.200 ,5,1,0.,24.0,0.,24.0,0.,24.0,0.,24.0
1979-07-14 00:19:44.200 ,1,1,0.,24.0,0.,24.0,0.,24.0,0.,24.0
1979-07-14 00:20:08.200 ,2,1,0.,24.0,0.,24.0,0.,24.0,0.,24.0
1979-07-14 00:20:32.200 ,6,1,0.,24.0,0.,24.0,0.,24.0,0.,24.0
1979-07-14 00:20:56.200 ,5,1,0.,24.0,0.,24.0,0.,24.0,0.,24.0
1979-07-14 00:21:20.200 ,1,1,0.,24.0,0.,24.0,0.,24.0,0.,24.0
1979-07-14 00:21:44.200 ,2,1,0.,24.0,0.,24.0,0.,24.0,0.,24.0
1979-07-14 00:22:08.200 ,6,1,0.,24.0,0.,24.0,0.,24.0,0.,24.0
1979-07-14 00:22:32.200 ,5,1,0.,24.0,0.,24.0,0.,24.0,0.,24.0
1979-07-14 00:22:56.200 ,1,1,0.,24.0,0.,24.0,0.,24.0,0.,24.0
1979-07-14 00:23:20.200 ,2,1,0.,24.0,0.,24.0,0.,24.0,0.,24.0
1979-07-14 00:23:44.200 ,6,1,0.,24.0,0.,24.0,0.,24.0,0.,24.0
1979-07-14 00:24:08.200 ,5,1,0.,24.0,0.,24.0,0.,24.0,0.,24.0
1979-07-14 00:24:32.200 ,1,1,0.,24.0,0.,24.0,0.,24.0,0.,24.0
1979-07-14 00:24:56.200 ,2,1,0.,24.0,0.,24.0,0.,24.0,0.,24.0
1979-07-14 00:25:20.200 ,6,1,0.,24.0,0.,24.0,0.,24.0,0.,24.0
1979-07-14 00:25:44.200 ,5,1,0.,24.0,0.,24.0,0.,24.0,0.,24.0
1979-07-14 00:26:08.200 ,1,1,0.,24.0,0.,24.0,0.,24.0,0.,24.0
1979-07-14 00:26:32.200 ,2,1,0.,24.0,0.,24.0,0.,24.0,0.,24.0
1979-07-14 00:26:56.200 ,6,1,0.,24.0,0.,24.0,0.,24.0,0.,24.0
1979-07-14 00:27:20.200 ,5,1,0.,24.0,0.,24.0,0.,24.0,0.,24.0
1979-07-14 00:27:44.200 ,1,1,0.,24.0,0.,24.0,0.,24.0,0.,24.0
1979-07-14 00:28:08.200 ,2,1,0.,24.0,0.,24.0,0.,24.0,0.,24.0
1979-07-14 00:28:32.200 ,6,1,0.,24.0,0.,24.0,0.,24.0,0.,24.0
1979-07-14 00:28:56.200 ,5,1,0.,24.0,0.,24.0,0.,24.0,0.,24.0
1979-07-14 00:29:20.200 ,1,1,0.,24.0,0.,24.0,0.,24.0,0.,24.0
1979-07-14 00:29:44.200 ,0,0,0.,24.0,0.,24.0,0.,24.0,0.,24.0
1979-07-14 00:30:08.200 ,0,0,0.,24.0,0.,24.0,0.,24.0,0.,24.0
1979-07-14 00:30:32.200 ,5,1,0.,24.0,0.,24.0,0.,24.0,0.,24.0
1979-07-14 00:30:56.200 ,5,0,0.,24.0,0.,24.0,0.,24.0,0.,24.0
1979-07-14 00:31:20.200 ,4,1,0.,24.0,0.,24.0,0.,24.0,0.,24.0
1979-07-14 00:31:44.200 ,4,0,0.,24.0,0.,24.0,0.,24.0,0.,24.0
1979-07-14 00:32:08.200 ,3,1,0.,24.0,0.,24.0,0.,24.0,0.,24.0
1979-07-14 00:32:32.200 ,3,0,0.,24.0,0.,24.0,0.,24.0,0.,24.0
1979-07-14 00:32:56.200 ,2,1,0.,24.0,0.,24.0,0.,24.0,0.,24.0
1979-07-14 00:33:20.200 ,2,0,0.,24.0,0.,24.0,0.,24.0,0.,24.0
1979-07-14 00:33:44.200 ,1,1,0.,24.0,0.,24.0,0.,24.0,0.,24.0
1979-07-14 00:34:08.200 ,1,0,0.,24.0,0.,24.0,0.,24.0,0.,24.0
1979-07-14 00:34:32.200 ,0,1,0.,24.0,0.,24.0,0.,24.0,0.,24.0
1979-07-14 00:34:56.200 ,0,0,0.,24.0,0.,24.0,0.,24.0,0.,24.0
1979-07-14 00:35:20.200 ,0,1,0.,24.0,0.,24.0,0.,24.0,0.,24.0
1979-07-14 00:35:44.200 ,0,0,0.,24.0,0.,24.0,0.,24.0,0.,24.0
1979-07-14 00:36:08.200 ,1,1,0.,24.0,0.,24.0,0.,24.0,0.,24.0
1979-07-14 00:36:32.200 ,1,0,0.,24.0,0.,24.0,0.,24.0,0.,24.0
1979-07-14 00:36:56.200 ,2,1,0.,24.0,0.,24.0,0.,24.0,0.,24.0
1979-07-14 00:37:20.200 ,2,0,0.,24.0,0.,24.0,0.,24.0,0.,24.0
1979-07-14 00:37:44.200 ,3,1,0.,24.0,0.,24.0,0.,24.0,0.,24.0
1979-07-14 00:38:08.200 ,3,0,0.,24.0,0.,24.0,0.,24.0,0.,24.0
1979-07-14 00:38:32.200 ,4,1,0.,24.0,0.,24.0,0.,24.0,0.,24.0
1979-07-14 00:38:56.200 ,4,0,0.,24.0,0.,24.0,0.,24.0,0.,24.0
1979-07-14 00:39:20.200 ,5,1,0.,24.0,0.,24.0,0.,24.0,0.,24.0
1979-07-14 00:39:44.200 ,5,0,0.,24.0,0.,24.0,0.,24.0,0.,24.0
1979-07-14 00:40:08.200 ,6,1,0.,24.0,0.,24.0,0.,24.0,0.,24.0
1979-07-14 00:40:32.200 ,6,0,0.,24.0,0.,24.0,0.,24.0,0.,24.0
1979-07-14 00:40:56.200 ,7,1,0.,24.0,0.,24.0,0.,24.0,0.,24.0
1979-07-14 00:41:20.200 ,7,0,0.,24.0,0.,24.0,0.,24.0,0.,24.0
1979-07-14 00:41:44.200 ,7,1,0.,24.0,0.,24.0,0.,24.0,0.,24.0
1979-07-14 00:42:08.200 ,7,0,0.,24.0,0.,24.0,0.,24.0,0.,24.0
1979-07-14 00:42:32.200 ,6,1,0.,24.0,0.,24.0,0.,24.0,0.,24.0
1979-07-14 00:42:56.200 ,6,0,0.,24.0,0.,24.0,0.,24.0,0.,24.0
1979-07-14 00:43:20.200 ,5,1,0.,24.0,0.,24.0,0.,24.0,0.,24.0
1979-07-14 00:43:44.200 ,5,0,0.,24.0,0.,24.0,0.,24.0,0.,24.0
1979-07-14 00:44:08.200 ,4,1,0.,24.0,0.,24.0,0.,24.0,0.,24.0
1979-07-14 00:44:32.200 ,4,0,0.,24.0,0.,24.0,0.,24.0,0.,24.0
1979-07-14 00:44:56.200 ,3,1,0.,24.0,0.,24.0,0.,24.0,0.,24.0
1979-07-14 00:45:20.200 ,3,0,0.,24.0,0.,24.0,0.,24.0,0.,24.0
1979-07-14 00:45:44.200 ,2,1,0.,24.0,0.,24.0,0.,24.0,0.,24.0
1979-07-14 00:46:08.200 ,2,0,0.,24.0,0.,24.0,0.,24.0,0.,24.0
1979-07-14 00:46:32.200 ,1,1,0.,24.0,0.,24.0,0.,24.0,0.,24.0
1979-07-14 00:46:56.200 ,1,0,0.,24.0,0.,24.0,0.,24.0,0.,24.0
1979-07-14 00:47:20.200 ,0,1,0.,24.0,0.,24.0,0.,24.0,0.,24.0
1979-07-14 00:47:44.200 ,0,0,0.,24.0,0.,24.0,0.,24.0,0.,24.0
1979-07-14 00:48:08.200 ,0,1,0.,24.0,0.,24.0,0.,24.0,0.,24.0
1979-07-14 00:48:32.200 ,0,0,0.,24.0,0.,24.0,0.,24.0,0.,24.0
1979-07-14 00:48:56.200 ,1,1,0.,24.0,0.,24.0,0.,24.0,0.,24.0
1979-07-14 00:49:20.200 ,1,0,0.,24.0,0.,24.0,0.,24.0,0.,24.0
1979-07-14 00:49:44.200 ,2,1,0.,24.0,0.,24.0,0.,24.0,0.,24.0
1979-07-14 00:50:08.200 ,2,0,0.,24.0,0.,24.0,0.,24.0,0.,24.0
1979-07-14 00:50:32.200 ,3,1,0.,24.0,0.,24.0,0.,24.0,0.,24.0
1979-07-14 00:50:56.200 ,3,0,0.,24.0,0.,24.0,0.,24.0,0.,24.0
1979-07-14 00:51:20.200 ,4,1,0.,24.0,0.,24.0,0.,24.0,0.,24.0
1979-07-14 00:51:44.200 ,4,0,0.,24.0,0.,24.0,0.,24.0,0.,24.0
1979-07-14 00:52:08.200 ,5,1,0.,24.0,0.,24.0,0.,24.0,0.,24.0
1979-07-14 00:52:32.200 ,5,0,0.,24.0,0.,24.0,0.,24.0,0.,24.0
1979-07-14 00:52:56.200 ,6,1,0.,24.0,0.,24.0,0.,24.0,0.,24.0
1979-07-14 00:53:20.200 ,6,0,0.,24.0,0.,24.0,0.,24.0,0.,24.0
1979-07-14 00:53:44.200 ,7,1,0.,24.0,0.,24.0,0.,24.0,0.,24.0
1979-07-14 00:54:08.200 ,7,0,0.,24.0,0.,24.0,0.,24.0,0.,24.0
1979-07-14 00:54:32.200 ,7,1,0.,24.0,0.,24.0,0.,24.0,0.,24.0
1979-07-14 00:54:56.200 ,7,0,0.,24.0,0.,24.0,0.,24.0,0.,24.0
1979-07-14 00:55:20.200 ,6,1,0.,24.0,0.,24.0,0.,24.0,0.,24.0
1979-07-14 00:55:44.200 ,6,0,0.,24.0,0.,24.0,0.,24.0,0.,24.0
1979-07-14 00:56:08.200 ,5,1,0.,24.0,0.,24.0,0.,24.0,0.,24.0
1979-07-14 00:56:32.200 ,5,0,0.,24.0,0.,24.0,0.,24.0,0.,24.0
1979-07-14 00:56:56.200 ,4,1,0.,24.0,0.,24.0,0.,24.0,0.,24.0
1979-07-14 00:57:20.200 ,4,0,0.,24.0,0.,24.0,0.,24.0,0.,24.0
1979-07-14 00:57:44.200 ,3,1,0.,24.0,0.,24.0,0.,24.0,0.,24.0
1979-07-14 00:58:08.200 ,3,0,0.,24.0,0.,24.0,0.,24.0,0.,24.0
1979-07-14 00:58:32.200 ,2,1,0.,24.0,0.,24.0,0.,24.0,0.,24.0
1979-07-14 00:58:56.200 ,2,0,0.,24.0,0.,24.0,0.,24.0,0.,24.0
1979-07-14 00:59:20.200 ,1,1,0.,24.0,0.,24.0,0.,24.0,0.,24.0
1979-07-14 00:59:44.200 ,1,0,0.,24.0,0.,24.0,0.,24.0,0.,24.0
1979-07-14 01:00:08.200 ,0,1,0.,24.0,0.,24.0,0.,24.0,0.,24.0
1979-07-14 01:00:32.200 ,0,0,0.,24.0,0.,24.0,0.,24.0,0.,24.0
1979-07-14 01:00:56.200 ,0,1,0.,24.0,0.,24.0,0.,24.0,0.,24.0
1979-07-14 01:01:20.200 ,0,0,0.,24.0,0.,24.0,0.,24.0,0.,24.0
1979-07-14 01:01:44.200 ,1,1,0.,24.0,0.,24.0,0.,24.0,0.,24.0
1979-07-14 01:02:08.200 ,1,0,0.,24.0,0.,24.0,0.,24.0,0.,24.0
1979-07-14 01:02:32.200 ,2,1,0.,24.0,0.,24.0,0.,24.0,0.,24.0
1979-07-14 01:02:56.200 ,2,0,0.,24.0,0.,24.0,0.,24.0,0.,24.0
1979-07-14 01:03:20.200 ,3,1,0.,24.0,0.,24.0,0.,24.0,0.,24.0
1979-07-14 01:03:44.200 ,3,0,0.,24.0,0.,24.0,0.,24.0,0.,24.0
1979-07-14 01:04:08.200 ,4,1,0.,24.0,0.,24.0,0.,24.0,0.,24.0
1979-07-14 01:04:32.200 ,4,0,0.,24.0,0.,24.0,0.,24.0,0.,24.0
1979-07-14 01:04:56.200 ,5,1,0.,24.0,0.,24.0,0.,24.0,0.,24.0
1979-07-14 01:05:20.200 ,5,0,0.,24.0,0.,24.0,0.,24.0,0.,24.0
1979-07-14 01:05:44.200 ,6,1,0.,24.0,0.,24.0,0.,24.0,0.,24.0
1979-07-14 01:06:08.200 ,6,0,0.,24.0,0.,24.0,0.,24.0,0.,24.0
1979-07-14 01:06:32.200 ,7,0,0.,24.0,0.,24.0,0.,24.0,0.,24.0
1979-07-14 01:06:56.200 ,7,0,0.,24.0,0.,24.0,0.,24.0,0.,24.0
1979-07-14 01:07:20.200 ,5,1,0.,24.0,0.,24.0,0.,24.0,0.,24.0
1979-07-14 01:07:44.200 ,1,1,0.,24.0,0.,24.0,0.,24.0,0.,24.0
1979-07-14 01:08:08.200 ,2,1,0.,24.0,0.,24.0,0.,24.0,0.,24.0
1979-07-14 01:08:32.200 ,6,1,0.,24.0,0.,24.0,0.,24.0,0.,24.0
1979-07-14 01:08:56.200 ,5,1,0.,24.0,0.,24.0,0.,24.0,0.,24.0
1979-07-14 01:09:20.200 ,1,1,0.,24.0,0.,24.0,0.,24.0,0.,24.0
1979-07-14 01:09:44.200 ,2,1,0.,24.0,0.,24.0,0.,24.0,0.,24.0
1979-07-14 01:10:08.200 ,6,1,0.,24.0,0.,24.0,0.,24.0,0.,24.0
1979-07-14 01:10:32.200 ,5,1,0.,24.0,0.,24.0,0.,24.0,0.,24.0
1979-07-14 01:10:56.200 ,1,1,0.,24.0,0.,24.0,0.,24.0,0.,24.0
1979-07-14 01:11:20.200 ,2,1,0.,24.0,0.,24.0,0.,24.0,0.,24.0
1979-07-14 01:11:44.200 ,6,1,0.,24.0,0.,24.0,0.,24.0,0.,24.0
1979-07-14 01:12:08.200 ,5,1,0.,24.0,0.,24.0,0.,24.0,0.,24.0
1979-07-14 01:12:32.200 ,1,1,0.,24.0,0.,24.0,0.,24.0,0.,24.0
1979-07-14 01:12:56.200 ,2,1,0.,24.0,0.,24.0,0.,24.0,0.,24.0
1979-07-14 01:13:20.200 ,6,1,0.,24.0,0.,24.0,0.,24.0,0.,24.0
1979-07-14 01:13:44.200 ,5,1,0.,24.0,0.,24.0,0.,24.0,0.,24.0
1979-07-14 01:14:08.200 ,1,1,0.,24.0,0.,24.0,0.,24.0,0.,24.0
1979-07-14 01:14:32.200 ,2,1,0.,24.0,0.,24.0,0.,24.0,0.,24.0
1979-07-14 01:14:56.200 ,6,1,0.,24.0,0.,24.0,0.,24.0,0.,24.0
1979-07-14 01:15:20.200 ,5,1,0.,24.0,0.,24.0,0.,24.0,0.,24.0
1979-07-14 01:15:44.200 ,1,1,0.,24.0,0.,24.0,0.,24.0,0.,24.0
1979-07-14 01:16:08.200 ,2,1,0.,24.0,0.,24.0,0.,24.0,0.,24.0
1979-07-14 01:16:32.200 ,6,1,0.,24.0,0.,24.0,0.,24.0,0.,24.0
1979-07-14 01:16:56.200 ,5,1,0.,24.0,0.,24.0,0.,24.0,0.,24.0
1979-07-14 01:17:20.200 ,1,1,0.,24.0,0.,24.0,0.,24.0,0.,24.0
1979-07-14 01:17:44.200 ,0,0,0.,24.0,0.,24.0,0.,24.0,0.,24.0
1979-07-14 01:18:08.200 ,0,0,0.,24.0,0.,24.0,0.,24.0,0.,24.0
1979-07-14 01:18:32.200 ,5,1,0.,24.0,0.,24.0,0.,24.0,0.,24.0
1979-07-14 01:18:56.200 ,5,0,0.,24.0,0.,24.0,0.,24.0,0.,24.0
1979-07-14 01:19:20.200 ,4,1,0.,24.0,0.,24.0,0.,24.0,0.,24.0
1979-07-14 01:19:44.200 ,4,0,0.,24.0,0.,24.0,0.,24.0,0.,24.0
1979-07-14 01:20:08.200 ,3,1,0.,24.0,0.,24.0,0.,24.0,0.,24.0
1979-07-14 01:20:32.200 ,3,0,0.,24.0,0.,24.0,0.,24.0,0.,24.0
1979-07-14 01:20:56.200 ,2,1,0.,24.0,0.,24.0,0.,24.0,0.,24.0
1979-07-14 01:21:20.200 ,2,0,0.,24.0,0.,24.0,0.,24.0,0.,24.0
1979-07-14 01:21:44.200 ,1,1,0.,24.0,0.,24.0,0.,24.0,0.,24.0
1979-07-14 01:22:08.200 ,1,0,0.,24.0,0.,24.0,0.,24.0,0.,24.0
1979-07-14 01:22:32.200 ,0,1,0.,24.0,0.,24.0,0.,24.0,0.,24.0
1979-07-14 01:22:56.200 ,0,0,0.,24.0,0.,24.0,0.,24.0,0.,24.0
1979-07-14 01:23:20.200 ,0,1,0.,24.0,0.,24.0,0.,24.0,0.,24.0
1979-07-14 01:23:44.200 ,0,0,0.,24.0,0.,24.0,0.,24.0,0.,24.0
1979-07-14 01:24:08.200 ,1,1,0.,24.0,0.,24.0,0.,24.0,0.,24.0
1979-07-14 01:24:32.200 ,1,0,0.,24.0,0.,24.0,0.,24.0,0.,24.0
1979-07-14 01:24:56.200 ,2,1,0.,24.0,0.,24.0,0.,24.0,0.,24.0
1979-07-14 01:25:20.200 ,2,0,0.,24.0,0.,24.0,0.,24.0,0.,24.0
1979-07-14 01:25:44.200 ,3,1,0.,24.0,0.,24.0,0.,24.0,0.,24.0
1979-07-14 01:26:08.200 ,3,0,0.,24.0,0.,24.0,0.,24.0,0.,24.0
1979-07-14 01:26:32.200 ,4,1,0.,24.0,0.,24.0,0.,24.0,0.,24.0
1979-07-14 01:26:56.200 ,4,0,0.,24.0,0.,24.0,0.,24.0,0.,24.0
1979-07-14 01:27:20.200 ,5,1,0.,24.0,0.,24.0,0.,24.0,0.,24.0
1979-07-14 01:27:44.200 ,5,0,0.,24.0,0.,24.0,0.,24.0,0.,24.0
1979-07-14 01:28:08.200 ,6,1,0.,24.0,0.,24.0,0.,24.0,0.,24.0
1979-07-14 01:28:08.200 ,6,1,0.,24.0,0.,24.0,0.,24.0,0.,24.0
1979-07-14 01:28:32.200 ,6,0,0.,24.0,0.,24.0,0.,24.0,0.,24.0
1979-07-14 01:28:56.200 ,7,1,0.,24.0,0.,24.0,0.,24.0,0.,24.0
1979-07-14 01:29:20.200 ,7,0,0.,24.0,0.,24.0,0.,24.0,0.,24.0
1979-07-14 01:30:08.200 ,7,0,0.,24.0,0.,24.0,0.,24.0,0.,24.0
1979-07-14 01:30:32.200 ,6,1,0.,24.0,0.,24.0,0.,24.0,0.,24.0
1979-07-14 01:30:56.200 ,6,0,0.,24.0,0.,24.0,0.,24.0,0.,24.0
1979-07-14 01:31:20.200 ,5,1,0.,24.0,0.,24.0,0.,24.0,0.,24.0
1979-07-14 01:31:44.200 ,5,0,0.,24.0,0.,24.0,0.,24.0,0.,24.0
1979-07-14 01:32:08.200 ,4,1,0.,24.0,0.,24.0,0.,24.0,0.,24.0
1979-07-14 01:32:32.200 ,4,0,0.,24.0,0.,24.0,0.,24.0,0.,24.0
1979-07-14 01:32:56.200 ,3,1,0.,24.0,0.,24.0,0.,24.0,0.,24.0
1979-07-14 01:33:20.200 ,3,0,0.,24.0,0.,24.0,0.,24.0,0.,24.0
1979-07-14 01:33:44.200 ,2,1,0.,24.0,0.,24.0,0.,24.0,0.,24.0
1979-07-14 01:34:08.200 ,2,0,0.,24.0,0.,24.0,0.,24.0,0.,24.0
1979-07-14 01:34:32.200 ,1,1,0.,24.0,0.,24.0,0.,24.0,0.,24.0
1979-07-14 01:34:56.200 ,1,0,0.,24.0,0.,24.0,0.,24.0,0.,24.0
1979-07-14 01:35:20.200 ,0,1,0.,24.0,0.,24.0,0.,24.0,0.,24.0
1979-07-14 01:35:44.200 ,0,0,0.,24.0,0.,24.0,0.,24.0,0.,24.0
1979-07-14 01:36:08.200 ,0,1,0.,24.0,0.,24.0,0.,24.0,0.,24.0
1979-07-14 01:36:32.200 ,0,0,0.,24.0,0.,24.0,0.,24.0,0.,24.0
1979-07-14 01:36:56.200 ,1,1,0.,24.0,0.,24.0,0.,24.0,0.,24.0
1979-07-14 01:37:20.200 ,1,0,0.,24.0,0.,24.0,0.,24.0,0.,24.0
1979-07-14 01:37:44.200 ,2,1,0.,24.0,0.,24.0,0.,24.0,0.,24.0
1979-07-14 01:38:08.200 ,2,0,0.,24.0,0.,24.0,0.,24.0,0.,24.0
1979-07-14 01:38:32.200 ,3,1,0.,24.0,0.,24.0,0.,24.0,0.,24.0
1979-07-14 01:38:56.200 ,3,0,0.,24.0,0.,24.0,0.,24.0,0.,24.0
1979-07-14 01:39:20.200 ,4,1,0.,24.0,0.,24.0,0.,24.0,0.,24.0
1979-07-14 01:39:44.200 ,4,0,0.,24.0,0.,24.0,0.,24.0,0.,24.0
1979-07-14 01:40:08.200 ,5,1,0.,24.0,0.,24.0,0.,24.0,0.,24.0
1979-07-14 01:40:32.200 ,5,0,0.,24.0,0.,24.0,0.,24.0,0.,24.0
1979-07-14 01:40:56.200 ,6,1,0.,24.0,0.,24.0,0.,24.0,0.,24.0
1979-07-14 01:41:20.200 ,6,0,0.,24.0,0.,24.0,0.,24.0,0.,24.0
1979-07-14 01:41:44.200 ,7,1,0.,24.0,0.,24.0,0.,24.0,0.,24.0
1979-07-14 01:42:08.200 ,7,0,0.,24.0,0.,24.0,0.,24.0,0.,24.0
1979-07-14 01:42:32.200 ,7,1,0.,24.0,0.,24.0,0.,24.0,0.,24.0
1979-07-14 01:42:56.200 ,0,0,,0,,0,,0,,0
1979-07-14 01:42:56.800 ,0,0,0.,24.0,0.,24.0,0.,24.0,0.,24.0
1979-07-14 01:43:20.200 ,6,1,0.,24.0,0.,24.0,0.,24.0,0.,24.0
1979-07-14 01:43:44.200 ,6,0,0.,24.0,0.,24.0,0.,24.0,0.,24.0
1979-07-14 01:44:08.200 ,5,1,0.,24.0,0.,24.0,0.,24.0,0.,24.0
1979-07-14 01:44:32.200 ,5,0,0.,24.0,0.,24.0,0.,24.0,0.,24.0
1979-07-14 01:44:56.200 ,4,1,0.,24.0,0.,24.0,0.,24.0,0.,24.0
1979-07-14 01:45:20.200 ,4,0,0.,24.0,0.,24.0,0.,24.0,0.,24.0
1979-07-14 01:45:44.200 ,3,1,0.,24.0,0.,24.0,0.,24.0,0.,24.0
1979-07-14 01:46:08.200 ,3,0,0.,24.0,0.,24.0,0.,24.0,0.,24.0
1979-07-14 01:46:32.200 ,2,1,0.,24.0,0.,24.0,0.,24.0,0.,24.0
1979-07-14 01:46:56.200 ,2,0,0.,24.0,0.,24.0,0.,24.0,0.,24.0
1979-07-14 01:47:20.200 ,1,1,0.,24.0,0.,24.0,0.,24.0,0.,24.0
1979-07-14 01:47:44.200 ,1,0,0.,24.0,0.,24.0,0.,24.0,0.,24.0
1979-07-14 01:48:08.200 ,0,1,0.,24.0,0.,24.0,0.,24.0,0.,24.0
1979-07-14 01:48:32.200 ,0,0,0.,24.0,0.,24.0,0.,24.0,0.,24.0
1979-07-14 01:48:56.200 ,0,1,0.,24.0,0.,24.0,0.,24.0,0.,24.0
1979-07-14 01:49:20.200 ,0,0,0.,24.0,0.,24.0,0.,24.0,0.,24.0
1979-07-14 01:49:44.200 ,1,1,0.,24.0,0.,24.0,0.,24.0,0.,24.0
1979-07-14 01:50:08.200 ,1,0,0.,24.0,0.,24.0,0.,24.0,0.,24.0
1979-07-14 01:50:32.200 ,2,1,0.,24.0,0.,24.0,0.,24.0,0.,24.0
1979-07-14 01:50:56.200 ,2,0,0.,24.0,0.,24.0,0.,24.0,0.,24.0
1979-07-14 01:51:20.200 ,3,1,0.,24.0,0.,24.0,0.,24.0,0.,24.0
1979-07-14 01:51:44.200 ,3,0,0.,24.0,0.,24.0,0.,24.0,0.,24.0
1979-07-14 01:52:08.200 ,4,1,0.,24.0,0.,24.0,0.,24.0,0.,24.0
1979-07-14 01:52:32.200 ,4,0,0.,24.0,0.,24.0,0.,24.0,0.,24.0
1979-07-14 01:52:56.200 ,5,1,0.,24.0,0.,24.0,0.,24.0,0.,24.0
1979-07-14 01:53:20.200 ,5,0,0.,24.0,0.,24.0,0.,24.0,0.,24.0
1979-07-14 01:53:44.200 ,6,1,0.,24.0,0.,24.0,0.,24.0,0.,24.0
1979-07-14 01:54:08.200 ,6,0,0.,24.0,0.,24.0,0.,24.0,0.,24.0
1979-07-14 01:54:32.200 ,7,0,0.,24.0,0.,24.0,0.,24.0,0.,24.0
1979-07-14 01:54:56.200 ,7,0,0.,24.0,0.,24.0,0.,24.0,0.,24.0
1979-07-14 01:55:20.200 ,5,1,0.,24.0,0.,24.0,0.,24.0,0.,24.0
1979-07-14 01:55:44.200 ,1,1,0.,24.0,0.,24.0,0.,24.0,0.,24.0
1979-07-14 01:56:08.200 ,2,1,0.,24.0,0.,24.0,0.,24.0,0.,24.0
1979-07-14 01:56:32.200 ,6,1,0.,24.0,0.,24.0,0.,24.0,0.,24.0
1979-07-14 01:56:56.200 ,5,1,0.,24.0,0.,24.0,0.,24.0,0.,24.0
1979-07-14 01:57:20.200 ,1,1,0.,24.0,0.,24.0,0.,24.0,0.,24.0
1979-07-14 01:57:44.200 ,2,1,0.,24.0,0.,24.0,0.,24.0,0.,24.0
1979-07-14 01:58:08.200 ,6,1,0.,24.0,0.,24.0,0.,24.0,0.,24.0
1979-07-14 01:58:32.200 ,5,1,0.,24.0,0.,24.0,0.,24.0,0.,24.0
1979-07-14 01:58:56.200 ,1,1,0.,24.0,0.,24.0,0.,24.0,0.,24.0
1979-07-14 01:59:20.200 ,2,1,0.,24.0,0.,24.0,0.,24.0,0.,24.0
1979-07-14 01:59:44.200 ,6,1,0.,24.0,0.,24.0,0.,24.0,0.,24.0
1979-07-14 02:00:08.200 ,5,1,0.,24.0,0.,24.0,0.,24.0,0.,24.0
1979-07-14 02:00:32.200 ,1,1,0.,24.0,0.,24.0,0.,24.0,0.,24.0
1979-07-14 02:00:56.200 ,2,1,0.,24.0,0.,24.0,0.,24.0,0.,24.0
1979-07-14 02:01:20.200 ,6,1,0.,24.0,0.,24.0,0.,24.0,0.,24.0
1979-07-14 02:01:44.200 ,5,1,0.,24.0,0.,24.0,0.,24.0,0.,24.0
1979-07-14 02:02:08.200 ,1,1,0.,24.0,0.,24.0,0.,24.0,0.,24.0
1979-07-14 02:02:32.200 ,2,1,0.,24.0,0.,24.0,0.,24.0,0.,24.0
1979-07-14 02:02:56.200 ,6,1,0.,24.0,0.,24.0,0.,24.0,0.,24.0
1979-07-14 02:03:20.200 ,5,1,0.,24.0,0.,24.0,0.,24.0,0.,24.0
1979-07-14 02:03:44.200 ,1,1,0.,24.0,0.,24.0,0.,24.0,0.,24.0
1979-07-14 02:04:08.200 ,2,1,0.,24.0,0.,24.0,0.,24.0,0.,24.0
1979-07-14 02:04:32.200 ,6,1,0.,24.0,0.,24.0,0.,24.0,0.,24.0
1979-07-14 02:04:56.200 ,5,1,0.,24.0,0.,24.0,0.,24.0,0.,24.0
1979-07-14 02:05:20.200 ,1,1,0.,24.0,0.,24.0,0.,24.0,0.,24.0
1979-07-14 02:05:44.200 ,0,0,0.,24.0,0.,24.0,0.,24.0,0.,24.0
1979-07-14 02:06:08.200 ,0,0,0.,24.0,0.,24.0,0.,24.0,0.,24.0
1979-07-14 02:06:32.200 ,5,1,0.,24.0,0.,24.0,0.,24.0,0.,24.0
1979-07-14 02:06:56.200 ,5,0,0.,24.0,0.,24.0,0.,24.0,0.,24.0
1979-07-14 02:07:20.200 ,4,1,0.,24.0,0.,24.0,0.,24.0,0.,24.0
1979-07-14 02:07:44.200 ,4,0,0.,24.0,0.,24.0,0.,24.0,0.,24.0
1979-07-14 02:08:08.200 ,3,1,0.,24.0,0.,24.0,0.,24.0,0.,24.0
1979-07-14 02:08:32.200 ,3,0,0.,24.0,0.,24.0,0.,24.0,0.,24.0
1979-07-14 02:08:56.200 ,2,1,0.,24.0,0.,24.0,0.,24.0,0.,24.0
1979-07-14 02:09:20.200 ,2,0,0.,24.0,0.,24.0,0.,24.0,0.,24.0
1979-07-14 02:09:44.200 ,1,1,0.,24.0,0.,24.0,0.,24.0,0.,24.0
1979-07-14 02:10:08.200 ,1,0,0.,24.0,0.,24.0,0.,24.0,0.,24.0
1979-07-14 02:10:32.200 ,0,1,0.,24.0,0.,24.0,0.,24.0,0.,24.0
1979-07-14 02:10:56.200 ,0,0,0.,24.0,0.,24.0,0.,24.0,0.,24.0
1979-07-14 02:11:20.200 ,0,1,0.,24.0,0.,24.0,0.,24.0,0.,24.0
1979-07-14 02:11:44.200 ,0,0,0.,24.0,0.,24.0,0.,24.0,0.,24.0
1979-07-14 02:12:08.200 ,1,1,0.,24.0,0.,24.0,0.,24.0,0.,24.0
1979-07-14 02:12:32.200 ,1,0,0.,24.0,0.,24.0,0.,24.0,0.,24.0
1979-07-14 02:12:56.200 ,2,1,0.,24.0,0.,24.0,0.,24.0,0.,24.0
1979-07-14 02:13:20.200 ,2,0,0.,24.0,0.,24.0,0.,24.0,0.,24.0
1979-07-14 02:13:44.200 ,3,1,0.,24.0,0.,24.0,0.,24.0,0.,24.0
1979-07-14 02:14:08.200 ,3,0,0.,24.0,0.,24.0,0.,24.0,0.,24.0
1979-07-14 02:14:32.200 ,4,1,0.,24.0,0.,24.0,0.,24.0,0.,24.0
1979-07-14 02:14:56.200 ,4,0,0.,24.0,0.,24.0,0.,24.0,0.,24.0
1979-07-14 02:15:20.200 ,5,1,0.,24.0,0.,24.0,0.,24.0,0.,24.0
1979-07-14 02:15:44.200 ,5,0,0.,24.0,0.,24.0,0.,24.0,0.,24.0
1979-07-14 02:16:08.200 ,6,1,0.,24.0,0.,24.0,0.,24.0,0.,24.0
1979-07-14 02:16:32.200 ,6,0,0.,24.0,0.,24.0,0.,24.0,0.,24.0
1979-07-14 02:16:56.200 ,7,1,0.,24.0,0.,24.0,0.,24.0,0.,24.0
1979-07-14 02:17:20.200 ,7,0,0.,24.0,0.,24.0,0.,24.0,0.,24.0
1979-07-14 02:17:44.200 ,7,1,0.,24.0,0.,24.0,0.,24.0,0.,24.0
1979-07-14 02:18:08.200 ,7,0,0.,24.0,0.,24.0,0.,24.0,0.,24.0
1979-07-14 02:18:32.200 ,6,1,0.,24.0,0.,24.0,0.,24.0,0.,24.0
1979-07-14 02:18:56.200 ,6,0,0.,24.0,0.,24.0,0.,24.0,0.,24.0
1979-07-14 02:19:20.200 ,5,1,0.,24.0,0.,24.0,0.,24.0,0.,24.0
1979-07-14 02:19:44.200 ,5,0,0.,24.0,0.,24.0,0.,24.0,0.,24.0
1979-07-14 02:20:08.200 ,4,1,0.,24.0,0.,24.0,0.,24.0,0.,24.0
1979-07-14 02:20:32.200 ,4,0,0.,24.0,0.,24.0,0.,24.0,0.,24.0
1979-07-14 02:20:56.200 ,3,1,0.,24.0,0.,24.0,0.,24.0,0.,24.0
1979-07-14 02:21:20.200 ,3,0,0.,24.0,0.,24.0,0.,24.0,0.,24.0
1979-07-14 02:22:32.200 ,0,0,0.,24.0,0.,24.0,0.,24.0,0.,24.0
1979-07-14 02:22:56.200 ,0,0,0.,24.0,0.,24.0,0.,24.0,0.,24.0
1979-07-14 02:23:20.200 ,0,1,0.,24.0,0.,24.0,0.,24.0,0.,24.0
1979-07-14 02:23:44.200 ,0,0,0.,24.0,0.,24.0,0.,24.0,0.,24.0
1979-07-14 02:24:08.200 ,0,1,0.,24.0,0.,24.0,0.,24.0,0.,24.0
1979-07-14 02:24:32.200 ,0,0,0.,24.0,0.,24.0,0.,24.0,0.,24.0
1979-07-14 02:24:56.200 ,1,1,0.,24.0,0.,24.0,0.,24.0,0.,24.0
1979-07-14 02:25:20.200 ,1,0,0.,24.0,0.,24.0,0.,24.0,0.,24.0
1979-07-14 02:25:44.200 ,2,1,0.,24.0,0.,24.0,0.,24.0,0.,24.0
1979-07-14 02:26:08.200 ,2,0,0.,24.0,0.,24.0,0.,24.0,0.,24.0
1979-07-14 02:26:32.200 ,3,1,0.,24.0,0.,24.0,0.,24.0,0.,24.0
1979-07-14 02:26:56.200 ,3,0,0.,24.0,0.,24.0,0.,24.0,0.,24.0
1979-07-14 02:27:20.200 ,4,1,0.,24.0,0.,24.0,0.,24.0,0.,24.0
1979-07-14 02:27:44.200 ,4,0,0.,24.0,0.,24.0,0.,24.0,0.,24.0
1979-07-14 02:28:08.200 ,5,1,0.,24.0,0.,24.0,0.,24.0,0.,24.0
1979-07-14 02:28:32.200 ,5,0,0.,24.0,0.,24.0,0.,24.0,0.,24.0
1979-07-14 02:28:56.200 ,6,1,0.,24.0,0.,24.0,0.,24.0,0.,24.0
1979-07-14 02:29:20.200 ,6,0,0.,24.0,0.,24.0,0.,24.0,0.,24.0
1979-07-14 02:29:44.200 ,7,1,0.,24.0,0.,24.0,0.,24.0,0.,24.0
1979-07-14 02:30:08.200 ,7,0,0.,24.0,0.,24.0,0.,24.0,0.,24.0
1979-07-14 02:30:32.200 ,7,1,0.,24.0,0.,24.0,0.,24.0,0.,24.0
1979-07-14 02:30:56.200 ,7,0,0.,24.0,0.,24.0,0.,24.0,0.,24.0
1979-07-14 02:31:20.200 ,6,1,0.,24.0,0.,24.0,0.,24.0,0.,24.0
1979-07-14 02:31:44.200 ,6,0,0.,24.0,0.,24.0,0.,24.0,0.,24.0
1979-07-14 02:32:08.200 ,5,1,0.,24.0,0.,24.0,0.,24.0,0.,24.0
1979-07-14 02:32:32.200 ,5,0,0.,24.0,0.,24.0,0.,24.0,0.,24.0
1979-07-14 02:32:56.200 ,4,1,0.,24.0,0.,24.0,0.,24.0,0.,24.0
1979-07-14 02:33:20.200 ,4,0,0.,24.0,0.,24.0,0.,24.0,0.,24.0
1979-07-14 02:33:44.200 ,3,1,0.,24.0,0.,24.0,0.,24.0,0.,24.0
1979-07-14 02:34:08.200 ,3,0,0.,24.0,0.,24.0,0.,24.0,0.,24.0
1979-07-14 02:34:32.200 ,2,1,0.,24.0,0.,24.0,0.,24.0,0.,24.0
1979-07-14 02:34:56.200 ,2,0,0.,24.0,0.,24.0,0.,24.0,0.,24.0